Location: Boussac
(44.2782°N, 2.3665°E)
Time: 10:15:25
(UTC+00:00)

Spot 2 Rocket - Pass Details

Date: 15 May 2026
Orbit: 752 x 765 km, 98.3° (Epoch: 5 June)

Event Time Altitude Azimuth Distance (km) Brightness Sun altitude
Exits shadow 21:03:00 15° 186° (S) 1,923 5.2 -16.5°
Maximum altitude 21:06:58 53° 260° (W) 926 4.1 -16.9°
Drops below altitude 10° 21:11:54 10° 337° (NNW) 2,291 7.1 -17.5°
Sets 21:14:16 0° 343° (NNW) 3,222 8.1 -17.7°
